Location: Newark
(1.4667°N, 173.0333°E)
Time: 01:47:04
(UTC+00:00)

Hubble Space Telescope - Pass Details

Date: 25 March 2019
Orbit: 536 x 540 km, 28.5° (Epoch: 17 October)

Event Time Altitude Azimuth Distance (km) Brightness Sun altitude
Exits shadow 17:30:37 13° 212° (SSW) 1,608 2.9 -15.8°
Maximum altitude 17:30:51 13° 208° (SSW) 1,605 2.9 -15.7°
Drops below altitude 10° 17:32:46 10° 180° (S) 1,784 3.4 -15.2°
Sets 17:36:09 0° 151° (SSE) 2,674 4.7 -14.4°
